FW5640 Weather Reports


Display with metric or nautical units.
time (UTC)temp
F
wind
direction
speed
MPH
gust
MPH
rain 1hr
in
rain 24hr
in
rain mn
in
humidity
%
barometer
mb
20260507003854 75 158 7.0 9.0 0.00 0.00 0.00 85 1015.6
20260507003349 75 170 7.0 9.0 0.00 0.00 0.00 86 1015.5
20260507002845 75 173 8.0 9.0 0.00 0.00 0.00 85 1015.0
20260507002341 75 125 6.0 8.0 0.00 0.00 0.00 85 1015.3
20260507001838 75 185 11.0 14.0 0.00 0.00 0.00 86 1015.3
20260507001335 75 162 6.0 8.0 0.00 0.00 0.00 86 1015.2
20260507000832 75 175 5.0 6.0 0.00 0.00 0.00 86 1015.1
20260507000328 75 158 9.0 10.0 0.00 0.00 0.00 86 1015.2
20260506235824 75 189 10.0 11.0 0.00 0.00 0.00 86 1015.0
20260506235320 75 169 6.0 9.0 0.00 0.00 0.00 85 1014.8
20260506234817 76 168 11.0 15.0 0.00 0.00 0.00 85 1014.9
20260506234315 76 190 10.0 11.0 0.00 0.00 0.00 85 1015.0
20260506233812 76 177 9.0 10.0 0.00 0.00 0.00 84 1014.9
20260506233308 76 176 12.0 13.0 0.00 0.00 0.00 84 1014.9
20260506232805 76 114 12.0 15.0 0.00 0.00 0.00 83 1014.9
20260506232300 76 136 8.0 10.0 0.00 0.00 0.00 83 1014.8
20260506231757 76 198 11.0 14.0 0.00 0.00 0.00 83 1014.9
20260506231255 77 158 9.0 10.0 0.00 0.00 0.00 82 1014.6
20260506230752 77 171 10.0 14.0 0.00 0.00 0.00 81 1015.0
20260506230249 77 202 9.0 13.0 0.00 0.00 0.00 81 1014.9
20260506225745 77 188 9.0 9.0 0.00 0.00 0.00 80 1014.9
20260506225243 77 151 11.0 14.0 0.00 0.00 0.00 80 1015.1
20260506224738 77 204 9.0 10.0 0.00 0.00 0.00 80 1014.8
20260506224236 77 204 10.0 13.0 0.00 0.00 0.00 80 1015.2
20260506223732 77 192 9.0 13.0 0.00 0.00 0.00 80 1015.0
20260506223228 77 188 10.0 10.0 0.00 0.00 0.00 80 1015.0
20260506222725 77 167 10.0 11.0 0.00 0.00 0.00 80 1015.1
20260506222220 78 179 10.0 13.0 0.00 0.00 0.00 79 1015.2
20260506221719 78 190 8.0 9.0 0.00 0.00 0.00 79 1015.2
20260506221217 78 181 10.0 11.0 0.00 0.00 0.00 79 1015.1
20260506220714 78 175 7.0 9.0 0.00 0.00 0.00 80 1015.3
20260506220208 78 198 8.0 10.0 0.00 0.00 0.00 79 1014.9
20260506215705 78 163 7.0 9.0 0.00 0.00 0.00 79 1015.0
20260506215201 78 170 8.0 9.0 0.00 0.00 0.00 80 1014.9
20260506214658 78 186 5.0 7.0 0.00 0.00 0.00 81 1015.0
20260506214155 78 150 9.0 11.0 0.00 0.00 0.00 80 1015.1
20260506213654 78 167 11.0 15.0 0.00 0.00 0.00 80 1014.9
20260506213150 78 180 6.0 7.0 0.00 0.00 0.00 79 1015.0
20260506212647 79 134 5.0 6.0 0.00 0.00 0.00 80 1015.0
20260506212142 78 113 4.0 6.0 0.00 0.00 0.00 80 1014.9
20260506211638 79 181 5.0 6.0 0.00 0.00 0.00 80 1015.0
20260506211135 79 117 5.0 6.0 0.00 0.00 0.00 79 1015.1
20260506210632 78 159 4.0 5.0 0.00 0.00 0.00 80 1015.3
20260506210128 79 129 7.0 8.0 0.00 0.00 0.00 80 1015.0
20260506205625 79 146 5.0 7.0 0.00 0.00 0.00 79 1015.1
20260506205120 80 104 4.0 5.0 0.00 0.00 0.00 78 1015.1
20260506204619 80 162 5.0 9.0 0.00 0.00 0.00 78 1015.2
20260506204115 79 112 4.0 6.0 0.00 0.00 0.00 78 1015.3
20260506203614 79 131 6.0 7.0 0.00 0.00 0.00 79 1015.1
20260506203109 79 131 6.0 7.0 0.00 0.00 0.00 77 1015.2
20260506202608 79 106 5.0 6.0 0.00 0.00 0.00 79 1015.3
20260506202103 78 130 7.0 9.0 0.00 0.00 0.00 79 1015.3
20260506201601 78 129 7.0 9.0 0.00 0.00 0.00 79 1015.4
20260506201058 79 106 6.0 7.0 0.00 0.00 0.00 78 1015.5
20260506200554 78 101 7.0 9.0 0.00 0.00 0.00 78 1015.6
20260506200051 78 92 8.0 10.0 0.00 0.00 0.00 79 1015.7
20260506195547 78 107 8.0 9.0 0.00 0.00 0.00 79 1015.9
20260506195044 79 129 8.0 9.0 0.00 0.00 0.00 78 1015.7
20260506194542 78 108 7.0 8.0 0.00 0.00 0.00 79 1015.7
20260506194038 78 98 9.0 10.0 0.00 0.00 0.00 80 1015.6
20260506193535 78 109 6.0 7.0 0.00 0.00 0.00 80 1016.0
20260506193032 78 82 10.0 13.0 0.00 0.00 0.00 80 1016.0
20260506192529 78 117 10.0 10.0 0.00 0.00 0.00 79 1016.0
20260506192025 78 142 9.0 11.0 0.00 0.00 0.00 80 1016.2
20260506191522 78 73 8.0 9.0 0.00 0.00 0.00 79 1016.2
20260506191018 78 111 8.0 10.0 0.00 0.00 0.00 79 1016.2
20260506190515 78 182 7.0 8.0 0.00 0.00 0.00 79 1016.3
20260506190012 77 126 6.0 8.0 0.00 0.00 0.00 80 1016.5
20260506185509 77 92 9.0 10.0 0.00 0.00 0.00 80 1016.4
20260506185006 77 143 11.0 11.0 0.00 0.00 0.00 80 1016.4
20260506184503 77 103 11.0 13.0 0.00 0.00 0.00 79 1016.5
20260506184000 77 77 10.0 11.0 0.00 0.00 0.00 79 1016.5
20260506183456 78 100 10.0 10.0 0.00 0.00 0.00 79 1016.6
20260506182953 77 146 11.0 14.0 0.00 0.00 0.00 78 1016.6
20260506182450 77 97 10.0 11.0 0.00 0.00 0.00 79 1016.7
20260506181947 77 98 8.0 9.0 0.00 0.00 0.00 79 1016.7
20260506181445 77 124 10.0 11.0 0.00 0.00 0.00 78 1016.7
20260506180942 77 130 9.0 11.0 0.00 0.00 0.00 78 1017.0
20260506180438 77 137 10.0 10.0 0.00 0.00 0.00 78 1016.9
20260506175935 78 108 9.0 10.0 0.00 0.00 0.00 78 1017.0
20260506175432 78 123 10.0 11.0 0.00 0.00 0.00 77 1017.0
20260506174928 77 112 7.0 10.0 0.00 0.00 0.00 78 1017.1
20260506174426 77 121 9.0 11.0 0.00 0.00 0.00 77 1017.1
20260506173923 77 158 9.0 10.0 0.00 0.00 0.00 77 1017.3
20260506173420 77 122 8.0 9.0 0.00 0.00 0.00 77 1017.3
20260506172917 78 104 10.0 11.0 0.00 0.00 0.00 76 1017.2
20260506172414 77 93 8.0 10.0 0.00 0.00 0.00 77 1017.6
20260506171911 77 101 11.0 13.0 0.00 0.00 0.00 76 1017.6
20260506171408 77 92 9.0 10.0 0.00 0.00 0.00 76 1017.5
20260506170906 77 106 9.0 10.0 0.00 0.00 0.00 76 1017.3
20260506170401 78 119 9.0 10.0 0.00 0.00 0.00 76 1017.7
20260506165855 78 108 7.0 9.0 0.00 0.00 0.00 76 1017.6
20260506165353 78 143 7.0 8.0 0.00 0.00 0.00 76 1017.9
20260506164849 78 120 7.0 9.0 0.00 0.00 0.00 75 1017.6
20260506164345 78 145 8.0 10.0 0.00 0.00 0.00 75 1017.7
20260506163843 77 124 7.0 7.0 0.00 0.00 0.00 75 1018.0
20260506163338 78 107 9.0 13.0 0.00 0.00 0.00 75 1018.0
20260506162833 77 133 8.0 9.0 0.00 0.00 0.00 76 1017.9
20260506162332 78 107 7.0 8.0 0.00 0.00 0.00 76 1018.0
20260506161829 77 120 9.0 11.0 0.00 0.00 0.00 76 1018.0
20260506161326 77 115 6.0 7.0 0.00 0.00 0.00 76 1018.1
20260506160823 78 170 7.0 9.0 0.00 0.00 0.00 75 1018.1
20260506160319 78 137 7.0 8.0 0.00 0.00 0.00 74 1018.0
20260506155818 78 157 4.0 6.0 0.00 0.00 0.00 74 1018.1
20260506155314 78 137 7.0 8.0 0.00 0.00 0.00 73 1017.9
20260506153427 77 115 7.0 7.0 0.00 0.00 0.00 74 1018.0
20260506152925 78 102 8.0 11.0 0.00 0.00 0.00 74 1017.8
20260506152421 78 131 7.0 8.0 0.00 0.00 0.00 73 1017.8
20260506151920 77 146 5.0 7.0 0.00 0.00 0.00 74 1017.7
20260506151416 78 136 10.0 11.0 0.00 0.00 0.00 72 1018.0
20260506150914 78 128 6.0 7.0 0.00 0.00 0.00 72 1017.6
20260506150410 80 106 5.0 7.0 0.00 0.00 0.00 65 1017.7
20260506145907 81 147 3.0 3.0 0.00 0.00 0.00 59 1017.8
20260506145403 80 108 5.0 7.0 0.00 0.00 0.00 63 1017.7
20260506144901 81 181 6.0 7.0 0.00 0.00 0.00 57 1017.9
20260506144357 80 160 5.0 5.0 0.00 0.00 0.00 60 1017.8
20260506143856 80 188 6.0 8.0 0.00 0.00 0.00 63 1017.8
20260506143352 80 208 5.0 6.0 0.00 0.00 0.00 60 1017.9
20260506142851 80 173 4.0 5.0 0.00 0.00 0.00 61 1017.7
20260506142348 79 191 5.0 7.0 0.00 0.00 0.00 63 1017.9
20260506141847 78 148 3.0 3.0 0.00 0.00 0.00 69 1017.7
20260506141344 78 181 5.0 7.0 0.00 0.00 0.00 69 1017.6
20260506140842 77 180 5.0 7.0 0.00 0.00 0.00 72 1017.7
20260506140339 77 188 9.0 11.0 0.00 0.00 0.00 70 1017.5
20260506135836 77 182 6.0 7.0 0.00 0.00 0.00 72 1017.8
20260506135332 77 198 7.0 8.0 0.00 0.00 0.00 72 1017.7
20260506134828 76 157 4.0 5.0 0.00 0.00 0.00 73 1017.7
20260506134325 75 173 7.0 8.0 0.00 0.00 0.00 73 1017.7
20260506133822 75 99 5.0 8.0 0.00 0.00 0.00 73 1017.8
20260506133319 75 192 7.0 8.0 0.00 0.00 0.00 73 1017.7
20260506132816 75 167 6.0 7.0 0.00 0.00 0.00 73 1017.6
20260506132313 75 210 6.0 8.0 0.00 0.00 0.00 74 1017.6
20260506131811 75 146 5.0 7.0 0.00 0.00 0.00 74 1017.6
20260506131307 75 184 7.0 8.0 0.00 0.00 0.00 72 1017.7
20260506130804 75 114 5.0 6.0 0.00 0.00 0.00 70 1017.7
20260506130300 75 178 5.0 8.0 0.00 0.00 0.00 70 1017.5
20260506125759 75 167 5.0 6.0 0.00 0.00 0.00 70 1017.6
20260506125256 75 187 4.0 6.0 0.00 0.00 0.00 70 1017.6
20260506124755 75 199 3.0 6.0 0.00 0.00 0.00 69 1017.4
20260506124252 74 205 3.0 3.0 0.00 0.00 0.00 70 1017.5
20260506123749 74 94 6.0 8.0 0.00 0.00 0.00 70 1017.5
20260506123248 73 179 4.0 5.0 0.00 0.00 0.00 71 1017.4
20260506122744 73 179 2.0 3.0 0.00 0.00 0.00 71 1017.5
20260506122241 73 170 3.0 5.0 0.00 0.00 0.00 72 1017.2
20260506121739 73 190 4.0 6.0 0.00 0.00 0.00 71 1017.3
20260506121236 73 175 1.0 1.0 0.00 0.00 0.00 72 1017.3
20260506120733 72 175 2.0 3.0 0.00 0.00 0.00 73 1017.2
20260506120231 72 164 3.0 3.0 0.00 0.00 0.00 73 1017.3
20260506115729 71 180 3.0 3.0 0.00 0.00 0.00 74 1017.3
20260506115227 71 213 3.0 3.0 0.00 0.00 0.00 75 1017.0
20260506114724 71 167 2.0 2.0 0.00 0.00 0.00 75 1017.1
20260506114221 70 175 3.0 5.0 0.00 0.00 0.00 76 1017.1
20260506113720 70 208 3.0 2.0 0.00 0.00 0.00 76 1017.0
20260506113217 70 187 1.0 1.0 0.00 0.00 0.00 76 1016.8
20260506112713 69 197 4.0 5.0 0.00 0.00 0.00 76 1016.8
20260506112211 69 182 1.0 1.0 0.00 0.00 0.00 77 1016.8
20260506111708 69 173 2.0 2.0 0.00 0.00 0.00 77 1016.4
20260506111206 69 148 1.0 1.0 0.00 0.00 0.00 78 1016.6
20260506110703 68 155 1.0 1.0 0.00 0.00 0.00 78 1016.4
20260506110200 68 130 1.0 1.0 0.00 0.00 0.00 78 1016.4
20260506105657 68 172 1.0 1.0 0.00 0.00 0.00 78 1016.1
20260506105154 68 185 1.0 1.0 0.00 0.00 0.00 78 1016.4
20260506104652 68 196 2.0 3.0 0.00 0.00 0.00 78 1016.6
20260506104149 68 207 2.0 2.0 0.00 0.00 0.00 78 1016.5
20260506103646 68 195 1.0 1.0 0.00 0.00 0.00 78 1016.6
20260506103143 68 232 2.0 2.0 0.00 0.00 0.00 77 1016.7
20260506102641 68 180 2.0 1.0 0.00 0.00 0.00 77 1016.6
20260506102138 68 210 2.0 3.0 0.00 0.00 0.00 77 1016.4
20260506101635 68 154 0.0 1.0 0.00 0.00 0.00 76 1016.3
20260506101132 68 132 0.0 0.0 0.00 0.00 0.00 76 1016.4
20260506100631 68 186 1.0 1.0 0.00 0.00 0.00 76 1016.5
20260506100128 68 155 3.0 2.0 0.00 0.00 0.00 76 1016.5
20260506095627 68 179 0.0 1.0 0.00 0.00 0.00 75 1016.4
20260506095123 68 144 1.0 1.0 0.00 0.00 0.00 75 1016.3
20260506094620 68 181 2.0 3.0 0.00 0.00 0.00 75 1016.3
20260506094118 68 179 2.0 2.0 0.00 0.00 0.00 75 1016.3
20260506093616 68 162 1.0 1.0 0.00 0.00 0.00 75 1016.2
20260506093113 68 171 2.0 2.0 0.00 0.00 0.00 75 1016.3
20260506092611 68 154 2.0 2.0 0.00 0.00 0.00 75 1016.1
20260506092108 68 173 1.0 1.0 0.00 0.00 0.00 75 1016.1
20260506091606 68 168 2.0 2.0 0.00 0.00 0.00 75 1016.0
20260506091103 68 206 2.0 3.0 0.00 0.00 0.00 75 1016.0
20260506090601 68 186 3.0 2.0 0.00 0.00 0.00 75 1016.2
20260506090057 68 194 1.0 2.0 0.00 0.00 0.00 75 1016.1
20260506085554 68 231 3.0 3.0 0.00 0.00 0.00 74 1016.3
20260506085050 68 121 0.0 0.0 0.00 0.00 0.00 74 1016.1
20260506084547 68 170 1.0 1.0 0.00 0.00 0.00 74 1016.3
20260506084043 68 161 0.0 0.0 0.00 0.00 0.00 74 1016.2
20260506083541 68 166 1.0 2.0 0.00 0.00 0.00 73 1016.4
20260506083038 68 139 0.0 0.0 0.00 0.00 0.00 73 1016.0
20260506082534 68 161 1.0 1.0 0.00 0.00 0.00 73 1016.2
20260506082030 68 195 2.0 2.0 0.00 0.00 0.00 72 1016.2
20260506081529 68 169 1.0 1.0 0.00 0.00 0.00 71 1016.2
20260506081026 68 150 0.0 0.0 0.00 0.00 0.00 71 1016.2
20260506080523 68 197 3.0 2.0 0.00 0.00 0.00 71 1015.9
20260506073507 69 183 2.0 2.0 0.00 0.00 0.00 70 1015.7
20260506073004 69 183 3.0 5.0 0.00 0.00 0.00 70 1015.8
20260506072501 69 146 3.0 2.0 0.00 0.00 0.00 71 1015.9
20260506071959 68 180 3.0 2.0 0.00 0.00 0.00 72 1015.7
20260506071456 68 159 1.0 1.0 0.00 0.00 0.00 73 1016.1
20260506070953 68 162 1.0 2.0 0.00 0.00 0.00 73 1016.0
20260506070450 68 185 1.0 1.0 0.00 0.00 0.00 73 1016.1
20260506062428 68 169 2.0 2.0 0.00 0.00 0.00 76 1016.5
20260506061923 68 156 0.0 1.0 0.00 0.00 0.00 75 1016.6
20260506061420 68 161 2.0 2.0 0.00 0.00 0.00 75 1016.8
20260506060918 68 181 1.0 1.0 0.00 0.00 0.00 75 1016.8
20260506060416 68 179 0.0 0.0 0.00 0.00 0.00 75 1016.6
20260506051348 69 166 1.0 1.0 0.00 0.00 0.00 71 1017.0
20260506050845 69 184 1.0 1.0 0.00 0.00 0.00 71 1017.0
20260506050343 69 165 0.0 0.0 0.00 0.00 0.00 70 1017.2
20260506044833 70 189 1.0 1.0 0.00 0.00 0.00 70 1017.1
20260506044331 71 179 1.0 1.0 0.00 0.00 0.00 70 1017.1
20260506043828 72 198 1.0 1.0 0.00 0.00 0.00 69 1017.3
20260506043325 72 177 3.0 3.0 0.00 0.00 0.00 68 1017.3
20260506042823 73 186 5.0 6.0 0.00 0.00 0.00 68 1017.4
20260506042322 73 173 6.0 7.0 0.00 0.00 0.00 68 1017.1
20260506041821 73 159 4.0 5.0 0.00 0.00 0.00 67 1017.2
20260506041317 73 179 5.0 7.0 0.00 0.00 0.00 66 1017.3
20260506040814 73 177 5.0 6.0 0.00 0.00 0.00 66 1017.2
20260506040312 73 188 4.0 5.0 0.00 0.00 0.00 65 1017.2
20260506035808 73 157 4.0 3.0 0.00 0.00 0.00 64 1017.2
20260506035306 73 166 7.0 8.0 0.00 0.00 0.00 64 1017.3
20260506034802 73 170 7.0 9.0 0.00 0.00 0.00 64 1017.4
20260506034259 73 198 5.0 6.0 0.00 0.00 0.00 65 1017.4
20260506033756 73 177 3.0 5.0 0.00 0.00 0.00 63 1017.5
20260506033253 73 193 6.0 6.0 0.00 0.00 0.00 64 1017.5
20260506032750 73 187 7.0 9.0 0.00 0.00 0.00 66 1017.6
20260506032247 73 180 7.0 8.0 0.00 0.00 0.00 65 1017.5
20260506031744 73 159 11.0 11.0 0.00 0.00 0.00 66 1017.2
20260506031241 73 146 7.0 8.0 0.00 0.00 0.00 68 1017.3
20260506030739 73 185 6.0 8.0 0.00 0.00 0.00 66 1017.3
20260506030237 73 170 3.0 7.0 0.00 0.00 0.00 64 1017.0
20260506025733 73 135 4.0 5.0 0.00 0.00 0.00 64 1017.1
20260506025230 73 133 3.0 3.0 0.00 0.00 0.00 62 1017.0
20260506024726 73 137 4.0 6.0 0.00 0.00 0.00 63 1017.0
20260506024223 73 104 7.0 7.0 0.00 0.00 0.00 62 1017.1
20260506023719 73 111 6.0 8.0 0.00 0.00 0.00 62 1017.0
20260506023217 73 136 7.0 10.0 0.00 0.00 0.00 63 1016.8
20260506022713 73 135 5.0 6.0 0.00 0.00 0.00 61 1016.9
20260506022211 73 102 10.0 11.0 0.00 0.00 0.00 61 1016.9
20260506021709 73 177 3.0 3.0 0.00 0.00 0.00 64 1016.8
20260506021206 73 133 4.0 6.0 0.00 0.00 0.00 62 1016.9
20260506020703 73 143 6.0 8.0 0.00 0.00 0.00 66 1016.7
20260506020201 73 114 5.0 6.0 0.00 0.00 0.00 66 1017.0
20260506015658 73 113 8.0 10.0 0.00 0.00 0.00 62 1016.8
20260506015155 73 120 9.0 13.0 0.00 0.00 0.00 61 1016.7
20260506014652 73 94 8.0 9.0 0.00 0.00 0.00 61 1016.7
20260506014148 73 111 11.0 13.0 0.00 0.00 0.00 62 1016.6
20260506013646 73 127 7.0 9.0 0.00 0.00 0.00 64 1016.6
20260506013143 73 113 7.0 10.0 0.00 0.00 0.00 64 1016.5
20260506012639 73 128 11.0 13.0 0.00 0.00 0.00 63 1016.6
20260506012136 73 140 7.0 9.0 0.00 0.00 0.00 64 1016.5
20260506011633 73 101 8.0 13.0 0.00 0.00 0.00 64 1016.2
20260506011129 73 125 9.0 10.0 0.00 0.00 0.00 63 1016.3
20260506010628 73 95 7.0 8.0 0.00 0.00 0.00 66 1016.6
20260506010125 73 134 9.0 13.0 0.00 0.00 0.00 64 1016.3
20260506005622 73 115 10.0 11.0 0.00 0.00 0.00 64 1016.5
20260506005118 73 104 9.0 9.0 0.00 0.00 0.00 63 1016.5
20260506004615 73 97 9.0 9.0 0.00 0.00 0.00 63 1016.3
20260506004112 73 114 10.0 10.0 0.00 0.00 0.00 63 1016.5